Location: Unspecified
(58.9933°N, 5.6375°E)
Time: 13:00:08
(UTC+02:00)

Cosmos 1674 - Visible Passes

Search period start: 18 October 2017 00:00
Search period end: 28 October 2017 00:00
Orbit: 497 x 523 km, 82.5° (Epoch: 17 October)

Date Brightness Start Highest point End Pass type
(mag) Time Alt. Az. Time Alt. Az. Time Alt. Az.
18 Oct 3.9 07:14:27 10° S 07:18:02 45° E 07:21:38 10° NNE visible
19 Oct 4.3 06:57:47 10° SSE 07:01:15 38° E 07:04:45 10° NNE visible
20 Oct 4.7 06:41:10 10° SSE 06:44:30 32° E 06:47:51 10° NNE visible
20 Oct 6.6 19:39:11 10° WNW 19:39:45 10° W 19:40:18 10° W visible
21 Oct 5.0 06:24:34 10° SSE 06:27:44 27° E 06:30:56 10° NNE visible
21 Oct 6.2 19:21:28 10° NW 19:23:03 12° W 19:24:38 10° WSW visible
22 Oct 5.3 06:08:02 10° SE 06:11:00 23° E 06:13:59 10° NE visible
22 Oct 2.8 07:42:43 10° SSW 07:46:21 50° WNW 07:50:02 10° N visible
22 Oct 6.0 19:04:13 10° NW 19:06:20 15° W 19:08:28 10° WSW visible
23 Oct 5.5 05:51:34 10° SE 05:54:16 19° E 05:56:59 10° NE visible
23 Oct 2.6 07:25:49 10° SSW 07:29:31 60° WNW 07:33:15 10° N visible
24 Oct 5.7 05:35:10 10° SE 05:37:33 16° E 05:39:56 10° NE visible
24 Oct 2.5 07:08:57 10° SSW 07:12:41 73° WNW 07:16:27 10° N visible
25 Oct 5.9 05:18:51 10° ESE 05:20:49 14° E 05:22:48 10° NE visible
25 Oct 2.6 06:52:07 10° SSW 06:55:51 88° WNW 06:59:38 10° NNE visible
26 Oct 6.0 05:02:45 10° ESE 05:04:07 12° E 05:05:30 10° ENE visible
26 Oct 2.7 06:35:18 10° S 06:39:01 77° E 06:42:48 10° NNE visible
27 Oct 3.0 06:18:31 10° S 06:22:13 63° E 06:25:57 10° NNE visible
27 Oct 4.0 07:55:22 10° WSW 07:58:13 20° WNW 08:01:05 10° N visible
